Back to catalog

STARLINK-31818

AliveCommunicationsVLEO
NORAD 59741·PAYLOAD·🇺🇸 United States

Launched May 13, 2024 from Cape Canaveral Space Force Station

Loading…

Next Passes (next 24 hours)

TLE

FreshSource: CelesTrak SupGP

Epoch: Sep 14, 2026, 14:07 UTC

1 59741C 24090M   26257.58868056 -.00010513  00000+0 -38093-3 0  2573
2 59741  43.0025 196.9085 0001580 270.2729 219.4645 15.27569703    10

Track STARLINK-31818 in real time with AllMySat

Download on the App Store